{"data":{"norad_id":67098,"epoch":"2026-09-20T22:18:18.694656Z","epoch_age_seconds":41896,"freshness":"FRESH","line1":"1 67098U 25298Z   26263.92938304  .00007894  00000+0  66837-3 0  9993","line2":"2 67098  70.0006 242.1400 0003696 282.5983  77.4762 14.98344199 42460","mean_motion":14.98344199,"eccentricity":0.0003696,"inclination_deg":70.0006,"raan_deg":242.14,"arg_perigee_deg":282.5983,"mean_anomaly_deg":77.4762,"bstar":0.00066837,"rev_number":4246,"period_min":96.106088371488,"perigee_km":569.44320699118,"apogee_km":574.58075711872,"semimajor_km":6950.1489820549,"source":"CELESTRAK","updated_at":"2026-09-21T09:00:36.102392Z"}}